Temp
15 15 15 14 14 14 14 14 14 14 14 14 14 14 13 13 13 13 13 13 13 13 13 13 13 13 12 13 13 13 14 13 14
15 15 15 14 14 14 14 14 14 14 14 14 14 13 13 12 13 13 12 11 10 10 11 13 13 13 13 13 13 13 13 13 13
14 14 14 14 14 14 14 14 14 14 14 14 13 13 12 12 12 12 12 12 10 10 10 11 12 12 13 13 13 13 13 13 13
14 14 14 14 14 14 13 13 13 14 13 13 12 11 11 11 11 11 11 12 9 10 10 10 12 12 10 12 12 12 12 12 12
13 13 14 13 13 13 13 13 13 13 13 13 12 11 10 10 10 10 11 11 9 10 11 11 11 11 11 12 12 11 11 11 12
13 13 13 13 13 13 13 13 13 13 13 13 13 12 10 11 11 11 11 11 10 10 10 11 11 11 11 11 11 10 10 11 11
13 13 13 13 14 14 14 14 13 13 13 13 12 12 10 10 10 10 10 10 9 10 10 10 11 11 11 11 11 10 10 11 11
13 13 13 13 13 13 13 13 13 13 12 12 12 11 10 10 10 10 10 10 10 9 9 10 10 10 10 10 10 10 11 11 11
13 13 13 13 13 13 13 13 12 12 12 12 11 11 10 10 9 9 9 9 9 8 9 8 8 9 9 9 9 10 10 10 10
13 13 13 13 13 13 13 13 13 12 11 11 11 11 10 9 8 8 8 8 8 8 8 8 9 8 8 8 8 8 10 10 10
13 13 13 13 13 13 13 13 12 12 11 11 10 10 9 9 8 7 7 8 8 8 8 8 8 8 8 7 7 7 9 9 9
13 13 13 13 13 13 12 12 12 12 11 11 10 9 9 8 7 7 7 7 8 8 8 8 8 8 8 8 6 6 9 9 9
12 12 13 12 12 12 12 12 12 12 11 11 10 9 8 8 8 8 7 7 7 8 8 8 8 8 7 8 7 8 8 8 8
12 12 12 12 12 12 12 12 12 12 11 11 10 9 9 9 9 8 8 8 8 8 8 8 8 8 7 7 7 7 7 7 7
12 12 12 12 12 12 12 12 11 11 11 11 10 9 9 8 8 8 8 8 8 8 8 8 8 8 7 7 7 7 7 7 7
11 11 11 11 11 11 11 11 11 11 11 11 10 9 8 8 8 7 7 7 8 8 8 8 7 7 7 7 7 6 7 7 7
11 11 11 11 11 10 10 10 10 10 10 10 10 9 8 7 8 7 7 7 6 7 7 7 7 7 7 7 7 6 7 7 7
10 10 10 10 10 10 10 10 9 9 9 9 9 8 8 8 8 7 7 6 6 6 6 6 7 7 7 7 7 6 6 6 6
10 9 9 9 9 9 9 9 9 8 8 8 7 7 7 6 7 7 7 7 6 7 7 6 6 6 6 6 6 6 6 6 6
9 9 9 9 9 8 8 8 8 7 7 7 7 7 6 6 5 5 7 7 7 6 6 6 6 5 5 6 6 5 5 6 6
Height
1548 1547 1547 1546 1545 1544 1544 1543 1542 1542 1542 1541 1541 1540 1540 1540 1539 1539 1539 1538 1538 1538 1538 1538 1539 1538 1538 1537 1537 1536 1536 1536 1535
1549 1549 1548 1547 1547 1546 1545 1544 1543 1543 1542 1542 1541 1541 1541 1541 1539 1540 1539 1539 1539 1538 1537 1537 1537 1536 1536 1535 1535 1535 1535 1534 1533
1550 1550 1549 1548 1547 1547 1546 1545 1544 1544 1543 1542 1542 1542 1541 1541 1539 1539 1539 1539 1538 1537 1536 1535 1535 1534 1533 1533 1532 1532 1532 1532 1532
1551 1551 1550 1549 1548 1547 1546 1546 1545 1544 1543 1543 1542 1542 1541 1540 1540 1540 1539 1539 1538 1538 1536 1535 1534 1533 1532 1531 1531 1530 1529 1529 1529
1552 1552 1551 1550 1549 1548 1547 1546 1545 1545 1544 1543 1542 1542 1541 1540 1540 1540 1539 1538 1538 1536 1536 1535 1534 1533 1532 1531 1530 1529 1528 1528 1527
1553 1552 1551 1551 1550 1549 1548 1547 1546 1545 1544 1543 1542 1542 1541 1540 1540 1540 1539 1539 1538 1537 1537 1536 1534 1533 1532 1531 1529 1529 1528 1527 1526
1553 1552 1552 1551 1550 1550 1548 1547 1546 1545 1544 1543 1542 1542 1540 1540 1540 1539 1539 1538 1537 1537 1536 1535 1534 1533 1531 1530 1529 1528 1528 1527 1525
1554 1553 1553 1552 1551 1550 1548 1547 1546 1544 1543 1542 1541 1541 1540 1539 1539 1539 1538 1537 1536 1536 1535 1534 1533 1532 1531 1530 1528 1527 1526 1526 1525
1554 1554 1553 1552 1551 1549 1548 1547 1545 1544 1543 1542 1541 1540 1539 1538 1539 1538 1537 1536 1535 1535 1534 1533 1532 1531 1530 1529 1527 1526 1525 1525 1524
1555 1554 1553 1552 1551 1550 1548 1547 1545 1544 1542 1541 1540 1539 1539 1538 1539 1538 1537 1536 1535 1534 1533 1532 1530 1530 1529 1528 1526 1524 1523 1523 1522
1554 1554 1553 1552 1551 1549 1548 1546 1545 1544 1543 1541 1539 1538 1538 1538 1538 1537 1536 1536 1535 1534 1532 1531 1530 1528 1527 1526 1524 1522 1521 1520 1519
1555 1554 1553 1552 1551 1550 1548 1547 1546 1544 1543 1541 1540 1539 1539 1539 1538 1537 1536 1535 1534 1532 1531 1530 1528 1527 1525 1524 1522 1520 1519 1517 1517
1555 1554 1553 1552 1551 1550 1549 1547 1546 1545 1543 1541 1540 1539 1539 1538 1538 1536 1536 1534 1533 1531 1529 1528 1526 1525 1524 1521 1520 1518 1517 1516 1514
1555 1554 1553 1552 1551 1550 1549 1547 1546 1545 1543 1541 1540 1540 1538 1538 1537 1536 1535 1533 1532 1530 1528 1526 1524 1523 1521 1520 1518 1516 1514 1513 1512
1554 1554 1553 1552 1551 1550 1549 1547 1546 1544 1542 1541 1540 1539 1539 1538 1537 1535 1534 1533 1531 1529 1527 1525 1523 1521 1519 1518 1517 1515 1513 1511 1509
1554 1553 1552 1551 1551 1549 1548 1547 1546 1545 1543 1541 1540 1539 1538 1538 1536 1535 1533 1532 1531 1529 1527 1524 1522 1520 1518 1517 1515 1513 1511 1509 1507
1553 1552 1551 1551 1550 1549 1548 1547 1545 1544 1542 1541 1539 1538 1539 1537 1536 1535 1534 1532 1530 1528 1526 1523 1522 1519 1517 1515 1514 1512 1510 1508 1506
1551 1551 1551 1550 1549 1548 1547 1546 1544 1543 1542 1540 1540 1538 1537 1535 1534 1533 1532 1530 1528 1527 1525 1523 1520 1518 1516 1513 1511 1510 1508 1506 1504
1550 1550 1549 1548 1548 1547 1546 1545 1543 1542 1541 1540 1539 1538 1537 1535 1533 1532 1531 1529 1528 1526 1523 1521 1518 1516 1514 1512 1509 1507 1506 1503 1501
1548 1548 1547 1547 1546 1545 1545 1543 1542 1541 1540 1538 1537 1537 1535 1534 1532 1528 1526 1526 1525 1523 1521 1519 1516 1514 1512 1509 1507 1505 1503 1501 1499
Wind_Speed
14 13 14 14 14 13 13 13 13 12 11 11 11 9 6 6 5 6 6 5 4 5 5 7 7 8 9 9 8 8 8 9 9
13 13 14 14 14 14 14 14 14 12 12 12 11 8 6 8 6 6 7 8 10 7 6 6 6 8 11 12 12 12 10 9 9
14 14 15 15 15 14 14 14 13 13 12 12 11 9 8 8 4 7 8 6 7 7 8 8 8 8 9 9 9 10 12 12 11
14 14 14 13 13 12 12 11 10 10 11 11 10 10 10 6 7 7 8 6 8 9 9 10 10 10 9 9 8 7 8 10 12
13 12 12 11 11 11 11 10 10 9 8 8 7 8 7 7 7 8 9 7 9 11 12 13 14 14 12 10 9 7 8 8 9
11 10 9 9 8 8 8 8 8 8 8 7 6 6 4 5 7 8 9 8 12 10 7 7 10 11 11 12 12 8 7 10 10
9 9 8 9 9 9 9 9 9 8 8 7 6 5 1 4 7 8 7 4 3 3 4 5 3 6 10 9 8 7 8 8 9
8 9 9 10 11 9 9 8 8 8 8 7 5 3 1 3 7 8 7 3 3 4 6 7 5 2 5 6 5 4 8 10 7
7 8 9 9 9 9 9 9 8 8 8 7 6 3 2 3 5 7 8 5 4 6 4 7 7 7 2 6 6 6 5 7 5
6 7 8 9 9 9 9 9 8 8 8 8 7 5 0 4 4 7 8 6 6 7 7 8 8 7 7 6 8 8 9 9 10
5 7 8 8 9 9 10 10 10 9 7 8 7 6 2 1 3 4 6 8 8 8 8 8 8 9 8 6 8 9 11 9 9
5 6 7 8 9 10 10 10 10 9 7 6 7 8 5 3 2 4 6 8 9 9 8 11 12 10 9 8 8 10 10 8 9
4 5 7 8 9 9 9 10 10 10 8 6 6 6 3 2 5 4 5 7 9 10 11 12 11 10 10 9 10 11 12 12 11
3 4 6 7 8 9 9 10 10 10 8 6 6 5 6 4 4 4 6 7 9 11 11 11 10 10 9 9 10 11 12 12 13
2 3 5 6 7 7 8 7 8 9 8 7 5 5 6 6 8 7 9 9 10 12 11 12 11 10 9 9 10 11 13 14 14
1 3 4 4 5 5 6 7 8 8 9 8 5 3 3 4 10 10 11 9 10 13 12 14 11 10 10 10 10 11 12 13 13
2 2 3 4 5 6 7 7 8 8 9 8 4 3 3 4 4 5 7 9 12 14 15 16 14 12 11 12 11 11 13 13 13
4 4 4 6 6 6 6 7 8 8 9 8 6 3 2 10 4 5 8 8 11 15 18 16 18 17 15 13 12 13 14 15 14
5 5 6 7 7 8 9 9 9 9 8 7 6 6 6 4 5 7 11 10 15 16 16 17 20 15 17 17 16 16 16 17 15
6 7 8 8 9 9 9 10 10 10 10 10 9 8 8 8 10 17 18 17 15 16 16 19 17 17 18 16 18 18 17 19 18
Wind_Direction
55 55 54 53 52 51 49 49 49 48 48 50 54 65 70 56 51 38 37 15 350 327 302 281 272 277 288 295 299 296 293 280 277
60 60 59 58 56 55 53 51 50 50 50 51 56 64 55 48 34 32 33 39 56 36 357 327 312 295 288 286 283 283 289 289 285
63 61 59 58 57 55 53 53 53 53 54 57 64 68 53 52 41 21 14 15 26 16 5 355 345 333 319 313 303 287 276 275 281
64 60 57 56 54 51 51 50 50 50 55 62 72 70 56 38 31 12 8 10 31 22 10 4 354 350 351 339 330 315 298 280 272
63 58 56 55 55 50 48 47 43 42 47 60 68 70 49 17 2 358 3 25 30 19 27 28 22 16 7 349 339 341 337 313 295
61 57 51 46 48 44 38 38 35 31 36 30 34 49 40 357 352 5 11 26 40 35 30 40 35 24 15 17 17 20 1 359 342
56 51 48 44 43 40 37 35 32 32 32 29 25 37 36 339 345 354 8 66 39 22 332 340 347 28 35 28 26 24 25 24 7
49 46 42 40 42 39 37 34 29 23 21 19 24 37 353 322 333 344 2 337 347 7 346 340 325 305 19 6 9 355 334 311 329
51 49 47 43 40 36 34 31 29 25 19 13 19 30 325 313 327 339 340 343 345 13 9 12 18 19 346 334 329 320 312 302 324
56 52 47 42 36 32 29 29 24 22 23 24 22 29 126 298 343 347 358 17 5 1 356 352 355 1 12 348 320 321 308 301 296
59 54 47 40 34 30 27 26 23 21 21 22 30 27 94 153 48 357 348 1 1 360 351 345 341 334 333 351 353 316 303 306 305
59 50 44 38 36 30 27 26 28 27 22 17 26 40 66 73 327 348 341 355 351 346 341 333 329 323 314 315 331 333 320 309 300
57 47 40 37 38 34 30 30 32 30 25 18 29 15 7 298 318 338 337 343 340 337 330 327 325 324 324 315 315 321 325 321 315
55 43 39 36 35 35 34 28 27 28 28 11 39 35 31 33 16 351 337 348 348 346 339 335 331 332 329 323 318 320 319 318 317
41 33 30 28 28 29 27 26 21 20 22 16 13 60 37 34 22 14 360 354 351 349 351 346 337 335 331 327 326 325 325 324 319
348 10 9 15 8 9 14 12 9 11 14 17 13 360 351 352 354 2 2 356 350 355 353 350 345 341 330 325 326 327 329 328 326
287 311 327 335 349 354 353 355 357 358 1 9 1 339 303 329 347 1 346 358 356 352 346 341 340 331 330 323 325 328 333 333 330
266 290 316 332 334 327 330 336 342 346 349 355 4 335 318 327 278 280 332 321 335 332 326 329 332 323 322 319 320 318 329 331 329
273 296 308 306 309 317 321 324 326 328 330 335 335 325 312 320 300 270 309 300 313 316 318 319 323 320 319 315 316 318 318 326 323
281 287 292 301 305 306 307 311 313 313 314 316 316 311 305 288 270 294 302 298 304 312 317 318 316 318 317 317 316 313 313 322 319